Timeline UpdatesTrip UpdatesNews PostsPvt PostsTravel TipsAdmin PostsConv PostsFollowed PostsChat RequestsBlog PostsPNR Posts

Disclaimer
Search
 
 
Tue Sep 2, 2014 12:14:15 ISTHomeTrainsΣChainsAtlasPNRForumGalleryNewsFAQTripsMembersLoginFeedback
No Recent News for this Train
Other Trains in the News **new
Latest...
running with se1
Wed Aug 27, 2014 (09:42AM)
⇐ Return Journey: Train# 18238

18237/Chhattisgarh Express

Time-Table HAS CHANGED.
Yesterday (11:44PM)
Change Departure Station:
Change Arrival Station:
Post a Train Travel TipPost a Train Travel Tip **new
Post a Comment/Question/Picture/VideoPost a Comment/Question/Picture/Video
Inaugural Run
Sat Jan 01, 1977
Pantry/Catering
✓ Pantry Car Avbl
✓ Catering Avbl
Food is of Average Quality
Loco/Rake Reversals
NGP/Nagpur Junction (8);
RSA - Rake Sharing
58209
Rake/Coach Composition
LOCO-SLR-GS-S1-S2-S3-S4-S5-S6-S7-S8-S9-S10-PC-S11-S12-B3-B2-B1-A1-HA1-GS-SLR-SP1
Loco
BSP - NGP --- ET WAP4 NGP - NZM --- AJNI...
Read more...
WAP7 NZM - ASR ---- TKD WDP4 Author: Mahesh Gupta Entry# 295353
News    PNR    Forum    Time-Table    Availability    Fare Chart    Map    Arr/Dep History    Trips    Gallery    ΣChains    X/O    Timeline    
Travel Time: 24h 48m    53 halts    Distance: 1156 km    Avg Speed: 46 km/hr
Type: Mail/Express
Zone: SECR/South East Central
Departs @ 07:22
Platform# 1
SMTWTFS
Vidisha/BHS 
Arrives @ 08:10 +1 night
Platform# 3
SMTWTFS
Amritsar Junction/ASR 

53 halts. 165 intermediate Stations between Vidisha and Amritsar Junction

Show ALL intermediate Stations  Show Old Time-Table

#CodeStation NameX/OArrivesAvgDepartsAvgHaltPFDay#KmSpeedElevZoneAddress
1BSPBilaspur Junction (8)  -14:15-31-854.952271mSECRBilaspur, Chhattisgarh
2BYLBelha  14:34 14:33-14:35-1 2m--1-839.480269mSECRCollege Road, Chhattisgarh
3BYTBhatapara (4)X  14:59 14:58-15:00-1 2m--1-808.777270mSECRBanjari Road, Chhattisgarh
4HNHathbandhX  15:13 15:12-15:14-1 2m--1-793.471283mSECRRaipur, Chhattisgarh
5TLDTilda (3)X  15:24 15:23-15:25-1 2m--1-782.751291mSECRBanjari Rd, Chhattisgarh
6RRaipur Junction (6)XO  16:10-16:20-10m--1-744.584297mSECRRaipur, Chhattisgarh
7BPHBBhilai Power House (3)  16:41 16:40-16:42-1 2m--1-716.519312mSECRBhilai, Chhattisgarh
8DURGDurg Junction (6)X  17:10-17:15-5m11-707.587299mSECRPh: 91-788-2322059, Chhattisgarh
9RJNRaj Nandgaon (3)X  17:36-17:38-2m--1-677.186313mSECRRajnandgaon, Chhattisgarh
10DGGDongargarh (2)  18:01 18:00-18:02-1 2m--1-645.567353mSECRDongargarh, Chhattisgarh
11SKSSalekasa (2)  18:35 18:34-18:36-1 2m--1-609.880312mSECRRajnandgaon, Chhattisgarh
12AGNAmgaon (2)  18:48 18:47-18:49-1 2m--1-595.147317mSECRGondia, Maharashtra
13GGondia Junction (7)  19:18-19:23-5m--1-572.392316mSECRGondia 441601, Maharashtra
14TROTirora (3)  19:43 19:42-19:44-1 2m--1-543.072282mSECRDist Gondiya, Maharashtra
15TMRTumsar Road (3)X  20:02 20:01-20:03-1 2m--1-522.672267mSECRBhandara, Maharashtra
16BRDBhandara Road (2)  20:19 20:18-20:20-1 2m--1-504.787266mSECRState Highway 252, Maharashtra
17KPKamptee (3)  20:54 20:53-20:55-1 2m--1-456.719290mSECRMH 441001, Maharashtra
18NGPNagpur Junction (8)X21:40-22:05-25m31-442.483314mCRNagpur 440001, Maharashtra
19KATLKatol (2)X  22:49-22:50-1m--1-381.679 CRKatol, Maharashtra
20NRKRNarkher Junction (4)  23:09-23:10-1m--1-356.458411mCRNarkher, Maharashtra
21PARPandhurna (2)  23:29-23:30-1m--1-338.148481mCRDistt: Chhindwara, Madhya Pradesh
22MTYMultai (2)  00:21-00:22-1m--2-297.360762mCRMultai, Madhya Pradesh
23AMLAAmla Junction (5)XO  00:45-01:20-35m--2-274.453733mCRAmla Distt. Betul, Madhya Pradesh
24BZUBetul (3)X  01:46-01:47-1m--2-251.550644mCRBetul, Madhya Pradesh
25GDYAGhoradongri (3)XO  02:30-02:31-1m--2-215.639 CRBetul, Madhya Pradesh
26ETItarsi Junction (7)  04:20-04:25-5m--2-145.260329mWCRItarsi 461111, Madhya Pradesh
27HBDHoshangabad (2)X  04:44 04:43-04:45-1 2m--2-127.150308mWCRHoshangabad, Madhya Pradesh
28ODGObaidulla Ganj  05:31 05:30-05:32-1 2m22-89.454 WCRObaidullaganj Raisen Dist., Madhya Pradesh
29HBJBhopal HabibGanj (5)XO  06:05-06:06 06:07-1 2m12-59.816496mWCRHabibGanj, Madhya Pradesh
30BPLBhopal Junction (6)X  06:30-06:35-5m22-53.571497mWCRBhopal, Madhya Pradesh
31BHS»Vidisha (3)»X  07:20-07:22-2m120.087 WCRVidisha, Madhya Pradesh
32BAQGanj Basoda (4)X  07:50 07:49-07:51-1 2m1239.346 WCRVidisha, Madhya Pradesh
33MABAMandi Bamora (3)XOO  08:29 08:28-08:30-1 2m1267.823413mWCRState Highway 14, Madhya Pradesh
34BINABina Junction (4)XO  09:15-09:20-5m2285.158414mWCRJn Pt - KATNI/GUNA/ BPL/JHS, Madhya Pradesh
35DUADhaura (3)XO  09:57 09:56-09:58-1 2m--2119.758407mNCRDhaura Tanda, Madhya Pradesh
36JLNJakhalaun (3)  10:12 10:10-10:14 10:12-2m--2131.272394mNCRLalitpur(05176-272220), Uttar Pradesh
37LARLalitpur (3)  10:21 10:26-10:22 10:28-1 2m32148.086373mNCRLalitpur, Uttar Pradesh
38TBTTalbahat (4)  10:50 10:56-10:52 10:58-2m--2187.959314mNCRKhaniyadhana Station Rd, Madhya Pradesh
39BZYBasai (3)X  11:07 11:11-11:08 11:13-1 2m22200.752287mNCR07522289600(Gate ManMob. - 9452701575), Madhya Pradesh
40BABBabina (3)  11:22 11:27-11:23 11:29-1 2m22212.859285mNCRBabina, Uttar Pradesh
41JHSJhansi Junction (7)X  12:10 11:55-12:18 12:05-8 10m42238.388259mNCRJhansi, Uttar Pradesh
42DAADatia (2)O  12:41 12:22-12:42 12:24-1 2m12263.353264mNCRDatia, Madhya Pradesh
43SORSonagir (2)X  12:55 12:37-12:56 12:38-1m--2274.966211mNCRDatia, Madhya Pradesh
44DBADabra (3)O  13:13 12:55-13:14 12:56-1m12293.745 NCRDabra(District-Gwalior), Madhya Pradesh
45GWLGwalior Junction (4)X  13:51 13:53-13:56 13:58-5m22336.077214mNCRGwalior, Madhya Pradesh
46BAOBanmor  14:12 14:13-14:13 14:15-1 2m--2355.277189mNCRGwalior, Madhya Pradesh
47MRAMorena (3)  14:34 14:30-14:35 14:32-1 2m22374.562176mNCRMorena, Madhya Pradesh
48DHODholpur Junction (3)X  14:57 14:58-14:58 15:00-1 2m12401.453177mNCRDholpur, Rajasthan
49AGCAgra Cantt. (6)XO  16:00-16:08-8m22454.030174mNCRAgra, Uttar Pradesh
50RKMRaja Ki Mandi (4)  16:16-16:17-1m12458.062170mNCRAgra, Uttar Pradesh
51MTJMathura Junction (10)X  17:05-17:10-5m22507.781179mNCRMathura, Uttar Pradesh
52CHJChata (4)XO  17:33-17:34-1m22538.856 NCRChhata, Uttar Pradesh
53KSVKosi Kalan (3)XO  17:46 17:45-17:47-1 2m12549.142189mNCRKosi Kalan, Uttar Pradesh
54PWLPalwal (8)X  18:39 18:48-18:40 18:50-1 2m--2591.667200mNRPalwal, Haryana
55BVHBallabgarh (5)X  18:59 19:09-19:00 19:10-1m--2612.844203mNRFaridabad, Haryana
56FDBFaridabad (4)  19:12 19:21-19:13 19:23-1 2m22620.839206mNRold Faridabad, Haryana
57NZMDelhi Hazrat Nizamuddin (7)  19:45 19:55-20:15 20:20-30 25m12641.637209mNRNew Delhi 110013, Delhi NCT
58SBBSahibabad Junction (5)XO  20:53 20:46-20:54 20:47-1m--2657.731209mNRGhaziabad, Uttar Pradesh
59GZBGhaziabad Junction (6)XO  21:08 21:00-21:10 21:05-2 5m12664.450217mNRGhaziabad, Uttar Pradesh
60MUDMuradnagar (2)XO  21:27 21:26-21:28-1 2m--2682.061220mNRGhaziabad, Uttar Pradesh
61MDNRModinagar (2)X  21:39 21:38-21:40-1 2m--2692.158221mNRGhaziabad, Uttar Pradesh
62MTCMeerut City Junction (6)O  22:00-22:05-5m32711.652229mNRMeerut, Uttar Pradesh
63MUTMeerut Cantt. (2)  22:11 22:10-22:12-1 2m--2715.979230mNRMeerut, Uttar Pradesh
64KATKhatauli (2)O  22:38 22:34-22:39 22:35-1m22745.067239mNRKhatauli, Uttar Pradesh
65MOZMuzaffarnagar (3)O  22:59 22:55-23:00 22:57-1 2m22767.269247mNRMuzaffarNagar, Uttar Pradesh
66DBDDeoband (2)O  23:21 23:18-23:22 23:20-1 2m22791.230258mNRSaharanpur, Uttar Pradesh
67SRESaharanpur Junction (6)X  00:20 00:28-00:30 00:45-10 17m43825.467276mNRSaharanpur, Uttar Pradesh
68JUDYamunanagar-Jagadhri (3)X  00:59 01:12-01:00 01:14-1 2m33855.543275mNRYamunanagar, Haryana
69JUDWJagadhri Workshop (2)X  01:08 01:21-01:09 01:23-1 2m23860.580280mNRRailway Workshop Road, Haryana
70RAABarara (2)  01:27 01:39-01:28 01:41-1 2m23881.840279mNRBarara, Haryana
71UMBAmbala Cantt. Junction (7)X  02:05 02:18-02:15 02:25-10 7m23906.641278mNRAmbala 133001, Haryana
72UBCAmbala City (3)X  02:29 02:36-02:30 02:38-1 2m33914.182273mNRNH-1, Haryana
73RPJRajpura Junction (3)X  02:47 02:53-02:48 02:55-1 2m13934.648272mNRNH-1, Punjab
74SIRSirhind Junction (3)XOO  03:26-03:28-2m13959.565271mNRSirhind, Punjab
75GVGMandi Gobindgarh (2)O  03:38 03:37-03:39-1 2m13969.244268mNRMandi Gobindgarh, Punjab
76KNNKhanna (3)XO  03:51 03:50-03:52-1 2m13977.468269mNRNH 1, Punjab
77LDHLudhiana Junction (7)X  04:30-04:40-10m231020.234246mNRLudhiana 141001, Punjab
78PHRPhillaur Junction (3)O  05:04 05:03-05:05-1 2m231033.375246mNRPhillaur, Punjab
79PGWPhagwara Junction (3)O  05:24 05:23-05:25-1 2m231055.854245mNRPhagwara, Punjab
80JRCJalandhar Cantt. Junction (3)  05:43-05:45-2m131072.129239mNRNear Rama Mandi, Punjab
81JUCJalandhar City Junction (5)X  05:55-06:00-5m131077.049239mNRJalandhar 144001, Punjab
82KREKartarpur (2)X  06:19 06:18-06:20-1 2m231091.649236mNRKartarpur, Punjab
83BEASBeas Junction (2)X  06:47 06:46-06:48-1 2m131113.180238mNRBeas, Punjab
84JNLJandiala (2)X  07:07 07:06-07:08-1 2m131136.919238mNRJandiala, Punjab
85ASR•Amritsar Junction (5)•  08:10--331156.1-233mNRAmritsar 143002, Punjab
Scroll to Top
Scroll to Bottom